Left ArrowRight Arrow

31.31129, -92.44514

Hourly Observations for June 22, 2024

Temp ( °F °C ) Dew Point ( °F °C ) Humidity (%) Winds ( mph kmh ) Pressure ( in mb ) Visibility ( mi km ) Precip ( " mm )
12:53 am 00:53 Mostly Clear 78 25.6 73 22.8 85 85 SSE 7 11 30.08 1019 10 16 0.00 0.00
1:53 am 01:53 Clear 76 24.4 74 23.3 94 94 SSE 3 6 30.07 1018 10 16 0.00 0.00
2:53 am 02:53 Clear 76 24.4 73 22.8 91 91 SE 5 7 30.07 1018 10 16 0.00 0.00
3:53 am 03:53 Clear 75 23.9 73 22.8 94 94 Calm 30.07 1018 9 14 0.00 0.00
4:53 am 04:53 Clear 74 23.3 73 22.8 97 97 Calm 30.08 1019 8 13 0.00 0.00
5:53 am 05:53 Clear 74 23.3 73 22.8 97 97 Calm 30.08 1019 9 14 0.00 0.00
6:53 am 06:53 Sunny 75 23.9 74 23.3 96 96 Calm 30.09 1019 7 11 0.00 0.00
7:53 am 07:53 Sunny 79 26.1 75 23.9 88 88 Calm 30.09 1019 9 14 0.00 0.00
8:53 am 08:53 Sunny 83 28.3 75 23.9 77 77 Calm 30.09 1019 10 16 0.00 0.00
9:53 am 09:53 Sunny 87 30.6 75 23.9 68 68 N 5 7 30.07 1018 10 16 0.00 0.00
10:53 am 10:53 Sunny 89 31.7 72 22.2 57 57 SE 3 6 30.07 1018 10 16 0.00 0.00
11:53 am 11:53 Sunny 93 33.9 73 22.8 52 52 SE 5 7 30.06 1018 10 16 0.00 0.00
12:53 pm 12:53 Sunny 94 34.4 71 21.7 48 48 NE 5 7 30.04 1017 10 16 0.00 0.00
1:53 pm 13:53 Sunny 95 35 70 21.1 45 45 VRB 5 7 30.03 1017 10 16 0.00 0.00
2:53 pm 14:53 Sunny 95 35 70 21.1 45 45 NNE 5 7 30.00 1016 10 16 0.00 0.00
3:53 pm 15:53 Mostly Sunny 94 34.4 69 20.6 45 45 VRB 5 7 29.98 1015 10 16 0.00 0.00
4:53 pm 16:53 Mostly Sunny 94 34.4 69 20.6 45 45 E 6 9 29.97 1015 10 16 0.00 0.00
5:53 pm 17:53 Sunny 94 34.4 69 20.6 45 45 E 7 11 29.96 1015 10 16 0.00 0.00
6:53 pm 18:53 Sunny 91 32.8 70 21.1 50 50 SE 6 9 29.96 1015 10 16 0.00 0.00
7:53 pm 19:53 Sunny 87 30.6 68 20 53 53 SSE 6 9 29.96 1015 10 16 0.00 0.00
8:53 pm 20:53 Clear 84 28.9 69 20.6 61 61 Calm 29.97 1015 10 16 0.00 0.00
9:53 pm 21:53 Clear 82 27.8 70 21.1 67 67 Calm 29.98 1015 9 14 0.00 0.00
10:53 pm 22:53 Clear 78 25.6 71 21.7 79 79 SSE 3 6 30.00 1016 9 14 0.00 0.00
11:53 pm 23:53 Clear 81 27.2 73 22.8 77 77 SW 7 11 30.01 1016 8 13 0.00 0.00

Powered by Vaisala Xweather